Time,TemperatureF,DewpointF,PressureIn,WindDirection,WindDirectionDegrees,WindSpeedMPH,WindSpeedGustMPH,Humidity,HourlyPrecipIn,Conditions,Clouds,dailyrainin,SoftwareType,DateUTC
2013-12-31 00:02:00,38.7,38.0,30.25,NE,56,0.0,0.0,98,0.00,,,0.00,weatherlink.com 1.10,2013-12-31 08:02:00,
2013-12-31 00:17:00,38.7,38.0,30.25,NE,56,0.0,0.0,98,0.00,,,0.00,weatherlink.com 1.10,2013-12-31 08:17:00,
2013-12-31 00:32:00,38.8,38.0,30.25,ENE,57,0.0,0.0,98,0.00,,,0.00,weatherlink.com 1.10,2013-12-31 08:32:00,
2013-12-31 00:47:00,38.8,38.0,30.25,NE,56,0.0,0.0,98,0.00,,,0.00,weatherlink.com 1.10,2013-12-31 08:47:00,
2013-12-31 01:02:00,38.8,38.0,30.25,NE,56,0.0,0.0,98,0.00,,,0.00,weatherlink.com 1.10,2013-12-31 09:02:00,
2013-12-31 01:17:00,38.7,38.0,30.25,NE,56,0.0,0.0,98,0.00,,,0.00,weatherlink.com 1.10,2013-12-31 09:17:00,
2013-12-31 01:32:00,38.7,38.0,30.24,North,8,0.0,0.0,98,0.00,,,0.00,weatherlink.com 1.10,2013-12-31 09:32:00,
2013-12-31 01:47:00,38.6,38.0,30.24,North,8,0.0,0.0,98,0.00,,,0.00,weatherlink.com 1.10,2013-12-31 09:47:00,
2013-12-31 02:02:00,38.6,38.0,30.23,WSW,243,0.0,0.0,98,0.00,,,0.00,weatherlink.com 1.10,2013-12-31 10:02:00,
2013-12-31 02:18:00,38.7,38.0,30.23,SW,231,0.0,0.0,98,0.00,,,0.00,weatherlink.com 1.10,2013-12-31 10:18:00,
2013-12-31 02:32:00,38.9,38.0,30.23,NE,49,0.0,0.0,98,0.00,,,0.00,weatherlink.com 1.10,2013-12-31 10:32:00,
2013-12-31 02:47:00,39.1,38.0,30.24,NE,50,0.0,0.0,97,0.00,,,0.00,weatherlink.com 1.10,2013-12-31 10:47:00,
2013-12-31 03:03:00,39.1,38.0,30.24,WSW,243,0.0,0.0,97,0.00,,,0.00,weatherlink.com 1.10,2013-12-31 11:03:00,
2013-12-31 03:18:00,39.2,39.0,30.25,WSW,243,0.0,0.0,97,0.00,,,0.00,weatherlink.com 1.10,2013-12-31 11:18:00,
2013-12-31 03:33:00,39.3,39.0,30.24,WSW,242,0.0,0.0,97,0.00,,,0.00,weatherlink.com 1.10,2013-12-31 11:33:00,
2013-12-31 03:48:00,39.3,39.0,30.24,WSW,243,0.0,0.0,97,0.00,,,0.00,weatherlink.com 1.10,2013-12-31 11:48:00,
2013-12-31 04:03:00,39.3,39.0,30.24,WSW,242,0.0,0.0,97,0.00,,,0.00,weatherlink.com 1.10,2013-12-31 12:03:00,
2013-12-31 04:18:00,39.3,39.0,30.23,WSW,243,0.0,0.0,97,0.00,,,0.00,weatherlink.com 1.10,2013-12-31 12:18:00,
2013-12-31 04:33:00,39.4,39.0,30.23,WSW,243,0.0,0.0,97,0.00,,,0.00,weatherlink.com 1.10,2013-12-31 12:33:00,
2013-12-31 04:48:00,39.4,39.0,30.24,WSW,242,0.0,0.0,97,0.00,,,0.00,weatherlink.com 1.10,2013-12-31 12:48:00,
2013-12-31 05:03:00,39.4,39.0,30.23,WSW,243,0.0,0.0,97,0.00,,,0.00,weatherlink.com 1.10,2013-12-31 13:03:00,
2013-12-31 05:18:00,39.5,39.0,30.23,WSW,243,0.0,0.0,97,0.00,,,0.00,weatherlink.com 1.10,2013-12-31 13:18:00,
2013-12-31 05:33:00,39.5,39.0,30.23,WSW,243,0.0,0.0,98,0.00,,,0.00,weatherlink.com 1.10,2013-12-31 13:33:00,
2013-12-31 05:48:00,39.6,39.0,30.23,WSW,243,0.0,0.0,98,0.00,,,0.00,weatherlink.com 1.10,2013-12-31 13:48:00,
2013-12-31 06:03:00,39.6,39.0,30.23,WSW,243,0.0,0.0,98,0.00,,,0.00,weatherlink.com 1.10,2013-12-31 14:03:00,
2013-12-31 06:18:00,39.5,39.0,30.24,WSW,243,0.0,0.0,97,0.00,,,0.00,weatherlink.com 1.10,2013-12-31 14:18:00,
2013-12-31 06:33:00,39.6,39.0,30.25,WSW,243,0.0,0.0,97,0.00,,,0.00,weatherlink.com 1.10,2013-12-31 14:33:00,
2013-12-31 06:48:00,39.6,39.0,30.25,WSW,243,0.0,0.0,97,0.00,,,0.00,weatherlink.com 1.10,2013-12-31 14:48:00,
2013-12-31 07:03:00,39.6,39.0,30.26,WSW,243,0.0,0.0,97,0.00,,,0.00,weatherlink.com 1.10,2013-12-31 15:03:00,
2013-12-31 07:18:00,39.5,39.0,30.25,WSW,243,0.0,0.0,98,0.01,,,0.01,weatherlink.com 1.10,2013-12-31 15:18:00,
2013-12-31 07:33:00,39.4,39.0,30.26,WSW,243,0.0,0.0,98,0.01,,,0.01,weatherlink.com 1.10,2013-12-31 15:33:00,
2013-12-31 07:48:00,39.4,39.0,30.27,WSW,243,0.0,0.0,98,0.01,,,0.01,weatherlink.com 1.10,2013-12-31 15:48:00,
2013-12-31 08:03:00,39.4,39.0,30.27,WSW,243,0.0,0.0,98,0.02,,,0.02,weatherlink.com 1.10,2013-12-31 16:03:00,
2013-12-31 08:18:00,39.5,39.0,30.28,WSW,243,0.0,0.0,98,0.01,,,0.02,weatherlink.com 1.10,2013-12-31 16:18:00,
2013-12-31 08:33:00,39.6,39.0,30.29,WSW,243,0.0,0.0,98,0.01,,,0.02,weatherlink.com 1.10,2013-12-31 16:33:00,
2013-12-31 08:48:00,39.7,39.0,30.29,WSW,243,0.0,0.0,98,0.01,,,0.02,weatherlink.com 1.10,2013-12-31 16:48:00,
2013-12-31 09:03:00,39.8,39.0,30.29,WSW,243,0.0,0.0,98,0.00,,,0.02,weatherlink.com 1.10,2013-12-31 17:03:00,
2013-12-31 09:18:00,40.0,40.0,30.30,WSW,243,0.0,0.0,99,0.01,,,0.03,weatherlink.com 1.10,2013-12-31 17:18:00,
2013-12-31 09:33:00,40.2,40.0,30.30,NNE,19,0.0,0.0,99,0.01,,,0.03,weatherlink.com 1.10,2013-12-31 17:33:00,
2013-12-31 09:48:00,40.5,40.0,30.31,North,5,0.0,0.0,99,0.01,,,0.03,weatherlink.com 1.10,2013-12-31 17:48:00,
2013-12-31 10:03:00,40.7,41.0,30.32,NE,53,0.0,0.0,99,0.01,,,0.03,weatherlink.com 1.10,2013-12-31 18:03:00,
2013-12-31 10:18:00,40.9,41.0,30.32,SW,235,0.0,1.0,99,0.00,,,0.03,weatherlink.com 1.10,2013-12-31 18:18:00,
2013-12-31 10:33:00,41.3,41.0,30.32,WSW,246,0.0,0.0,99,0.00,,,0.03,weatherlink.com 1.10,2013-12-31 18:33:00,
2013-12-31 10:48:00,41.7,42.0,30.31,North,349,0.0,0.0,99,0.01,,,0.04,weatherlink.com 1.10,2013-12-31 18:48:00,
2013-12-31 11:03:00,41.8,42.0,30.31,SE,128,0.0,0.0,99,0.01,,,0.04,weatherlink.com 1.10,2013-12-31 19:03:00,
2013-12-31 11:18:00,42.1,42.0,30.31,SE,128,0.0,0.0,99,0.01,,,0.04,weatherlink.com 1.10,2013-12-31 19:18:00,
2013-12-31 11:33:00,42.4,42.0,30.30,WNW,302,0.0,0.0,99,0.01,,,0.04,weatherlink.com 1.10,2013-12-31 19:33:00,
2013-12-31 11:48:00,42.7,42.0,30.30,SW,234,0.0,2.0,98,0.00,,,0.04,weatherlink.com 1.10,2013-12-31 19:48:00,
2013-12-31 12:03:00,43.3,43.0,30.30,NNE,32,0.0,0.0,98,0.00,,,0.04,weatherlink.com 1.10,2013-12-31 20:03:00,
2013-12-31 12:18:00,43.6,43.0,30.30,North,354,0.0,0.0,98,0.00,,,0.04,weatherlink.com 1.10,2013-12-31 20:18:00,
2013-12-31 12:33:00,43.9,43.0,30.30,WSW,243,0.0,0.0,98,0.00,,,0.04,weatherlink.com 1.10,2013-12-31 20:33:00,
2013-12-31 12:48:00,44.0,44.0,30.30,South,179,0.0,0.0,98,0.00,,,0.04,weatherlink.com 1.10,2013-12-31 20:48:00,
2013-12-31 13:03:00,44.1,43.0,30.30,SE,144,0.0,0.0,97,0.00,,,0.04,weatherlink.com 1.10,2013-12-31 21:03:00,
2013-12-31 13:19:00,44.5,44.0,30.30,SSE,151,0.0,0.0,97,0.00,,,0.04,weatherlink.com 1.10,2013-12-31 21:19:00,
2013-12-31 13:33:00,44.8,44.0,30.30,ENE,60,0.0,0.0,97,0.00,,,0.04,weatherlink.com 1.10,2013-12-31 21:33:00,
2013-12-31 13:49:00,44.9,44.0,30.30,SSW,194,0.0,0.0,97,0.00,,,0.04,weatherlink.com 1.10,2013-12-31 21:49:00,
2013-12-31 14:04:00,45.1,44.0,30.30,WSW,250,0.0,0.0,97,0.00,,,0.04,weatherlink.com 1.10,2013-12-31 22:04:00,
2013-12-31 14:19:00,45.0,44.0,30.30,WSW,250,0.0,0.0,96,0.00,,,0.04,weatherlink.com 1.10,2013-12-31 22:19:00,
2013-12-31 14:34:00,45.1,44.0,30.30,WSW,251,0.0,0.0,96,0.00,,,0.04,weatherlink.com 1.10,2013-12-31 22:34:00,
2013-12-31 14:49:00,45.1,44.0,30.30,WSW,250,0.0,0.0,95,0.00,,,0.04,weatherlink.com 1.10,2013-12-31 22:49:00,
2013-12-31 15:04:00,45.0,44.0,30.30,WSW,250,0.0,0.0,96,0.00,,,0.04,weatherlink.com 1.10,2013-12-31 23:04:00,
2013-12-31 15:19:00,45.1,44.0,30.30,WSW,250,0.0,0.0,96,0.00,,,0.04,weatherlink.com 1.10,2013-12-31 23:19:00,
2013-12-31 15:34:00,45.1,44.0,30.31,West,259,0.0,0.0,96,0.00,,,0.04,weatherlink.com 1.10,2013-12-31 23:34:00,
2013-12-31 15:49:00,44.9,44.0,30.31,WSW,258,0.0,0.0,96,0.00,,,0.04,weatherlink.com 1.10,2013-12-31 23:49:00,
2013-12-31 16:04:00,44.7,44.0,30.31,WSW,258,0.0,0.0,97,0.00,,,0.04,weatherlink.com 1.10,2014-01-01 00:04:00,
2013-12-31 16:19:00,44.6,44.0,30.32,WSW,258,0.0,0.0,97,0.00,,,0.04,weatherlink.com 1.10,2014-01-01 00:19:00,
2013-12-31 16:34:00,44.4,44.0,30.32,WSW,258,0.0,0.0,97,0.00,,,0.04,weatherlink.com 1.10,2014-01-01 00:34:00,
2013-12-31 16:49:00,44.3,44.0,30.33,WSW,258,0.0,0.0,97,0.00,,,0.04,weatherlink.com 1.10,2014-01-01 00:49:00,
2013-12-31 17:04:00,44.1,44.0,30.34,West,259,0.0,0.0,98,0.00,,,0.04,weatherlink.com 1.10,2014-01-01 01:04:00,
2013-12-31 17:19:00,44.0,44.0,30.34,West,259,0.0,0.0,98,0.00,,,0.04,weatherlink.com 1.10,2014-01-01 01:19:00,
2013-12-31 17:34:00,43.9,43.0,30.34,WSW,258,0.0,0.0,98,0.00,,,0.04,weatherlink.com 1.10,2014-01-01 01:34:00,
2013-12-31 17:49:00,43.8,43.0,30.34,West,259,0.0,0.0,98,0.00,,,0.04,weatherlink.com 1.10,2014-01-01 01:49:00,
2013-12-31 18:04:00,43.7,43.0,30.34,WSW,258,0.0,0.0,98,0.00,,,0.04,weatherlink.com 1.10,2014-01-01 02:04:00,
2013-12-31 18:19:00,43.6,43.0,30.34,WSW,258,0.0,0.0,98,0.00,,,0.04,weatherlink.com 1.10,2014-01-01 02:19:00,
2013-12-31 18:34:00,43.6,43.0,30.35,WSW,258,0.0,0.0,98,0.00,,,0.04,weatherlink.com 1.10,2014-01-01 02:34:00,
2013-12-31 18:49:00,43.5,43.0,30.35,WSW,258,0.0,0.0,98,0.00,,,0.04,weatherlink.com 1.10,2014-01-01 02:49:00,
2013-12-31 19:04:00,43.4,43.0,30.35,WSW,258,0.0,0.0,98,0.00,,,0.04,weatherlink.com 1.10,2014-01-01 03:04:00,
2013-12-31 19:19:00,43.3,43.0,30.35,WSW,258,0.0,0.0,98,0.00,,,0.04,weatherlink.com 1.10,2014-01-01 03:19:00,
2013-12-31 19:34:00,43.3,43.0,30.36,WSW,258,0.0,0.0,99,0.00,,,0.04,weatherlink.com 1.10,2014-01-01 03:34:00,
2013-12-31 19:49:00,43.2,43.0,30.36,WSW,258,0.0,0.0,98,0.00,,,0.04,weatherlink.com 1.10,2014-01-01 03:49:00,
2013-12-31 20:04:00,43.0,43.0,30.35,WSW,258,0.0,0.0,99,0.00,,,0.04,weatherlink.com 1.10,2014-01-01 04:04:00,
2013-12-31 20:19:00,42.8,43.0,30.36,West,259,0.0,0.0,99,0.00,,,0.04,weatherlink.com 1.10,2014-01-01 04:19:00,
2013-12-31 20:34:00,42.9,43.0,30.36,WSW,258,0.0,0.0,99,0.00,,,0.04,weatherlink.com 1.10,2014-01-01 04:34:00,
2013-12-31 20:49:00,42.8,43.0,30.36,WSW,258,0.0,0.0,99,0.00,,,0.04,weatherlink.com 1.10,2014-01-01 04:49:00,
2013-12-31 21:04:00,42.7,43.0,30.36,West,259,0.0,0.0,99,0.00,,,0.04,weatherlink.com 1.10,2014-01-01 05:04:00,
2013-12-31 21:19:00,42.7,43.0,30.36,WSW,258,0.0,0.0,99,0.00,,,0.04,weatherlink.com 1.10,2014-01-01 05:19:00,
2013-12-31 21:34:00,42.6,42.0,30.37,WSW,258,0.0,0.0,99,0.00,,,0.04,weatherlink.com 1.10,2014-01-01 05:34:00,
2013-12-31 21:49:00,42.5,42.0,30.37,WSW,258,0.0,0.0,99,0.00,,,0.04,weatherlink.com 1.10,2014-01-01 05:49:00,
2013-12-31 22:04:00,42.5,42.0,30.37,WSW,258,0.0,0.0,99,0.00,,,0.04,weatherlink.com 1.10,2014-01-01 06:04:00,
2013-12-31 22:19:00,42.5,42.0,30.37,WSW,258,0.0,0.0,99,0.00,,,0.04,weatherlink.com 1.10,2014-01-01 06:19:00,
2013-12-31 22:34:00,42.5,42.0,30.37,WNW,283,0.0,0.0,99,0.00,,,0.04,weatherlink.com 1.10,2014-01-01 06:34:00,
2013-12-31 22:49:00,42.5,42.0,30.38,WNW,283,0.0,0.0,99,0.00,,,0.04,weatherlink.com 1.10,2014-01-01 06:49:00,
2013-12-31 23:04:00,42.5,42.0,30.38,NNE,30,0.0,0.0,99,0.00,,,0.04,weatherlink.com 1.10,2014-01-01 07:04:00,
2013-12-31 23:19:00,42.6,42.0,30.39,NNE,30,0.0,0.0,99,0.00,,,0.04,weatherlink.com 1.10,2014-01-01 07:19:00,
2013-12-31 23:34:00,42.7,43.0,30.38,NE,40,0.0,0.0,99,0.00,,,0.04,weatherlink.com 1.10,2014-01-01 07:34:00,
2013-12-31 23:49:00,42.7,43.0,30.38,West,281,0.0,0.0,99,0.00,,,0.04,weatherlink.com 1.10,2014-01-01 07:49:00,